This demonstration page uses our WeatherBlox Daily Observations layout. Learn more.

Left ArrowRight Arrow

39.01783, -85.05884

Hourly Observations for March 27, 2018

Temp ( °F °C ) Dew Point ( °F °C ) Humidity (%) Winds ( mph kmh ) Pressure ( in mb ) Visibility ( mi km ) Precip ( " mm )
12:23 am 00:23 Cloudy 50 10 40 4.4 68 68 SSE 14 22 30.21 1023 10 16 N/A
12:52 am 00:52 Cloudy 51 10.6 43 6.1 74 74 S 12 19 30.18 1022 10 16 N/A
1:52 am 01:52 Cloudy 52 11.1 47 8.3 83 83 S 20 31 30.15 1021 10 16 N/A
2:52 am 02:52 Cloudy 50 10 48 8.9 93 93 S 12 19 30.14 1021 10 16 N/A
3:52 am 03:52 Cloudy 51 10.6 47 8.3 86 86 S 10 17 30.13 1020 10 16 N/A
4:52 am 04:52 Cloudy 52 11.1 47 8.3 83 83 S 14 22 30.11 1020 10 16 N/A
5:52 am 05:52 Cloudy 52 11.1 47 8.3 83 83 S 16 26 30.11 1020 10 16 N/A
6:52 am 06:52 Cloudy 52 11.1 48 8.9 86 86 S 14 22 30.10 1019 10 16 N/A
7:52 am 07:52 Cloudy 53 11.7 48 8.9 83 83 SSW 14 22 30.12 1020 10 16 N/A
8:52 am 08:52 Cloudy 53 11.7 49 9.4 86 86 SSW 16 26 30.13 1020 10 16 0.01 0.25
9:52 am 09:52 Cloudy with Light Rain 53 11.7 50 10 89 89 SSW 15 24 30.12 1020 10 16 N/A
10:21 am 10:21 Cloudy 53 11.7 50 10 89 89 SSW 15 24 30.12 1020 10 16 N/A
10:37 am 10:37 Cloudy 54 12.2 50 10 87 87 SSW 17 28 30.12 1020 10 16 N/A
10:52 am 10:52 Cloudy 53 11.7 50 10 89 89 SSW 18 30 30.11 1020 10 16 N/A
11:52 am 11:52 Cloudy 53 11.7 50 10 89 89 SSW 17 28 30.11 1020 10 16 N/A
12:52 pm 12:52 Cloudy 54 12.2 51 10.6 90 90 SSW 14 22 30.10 1019 10 16 N/A
1:52 pm 13:52 Cloudy 55 12.8 51 10.6 87 87 SSW 13 20 30.09 1019 10 16 N/A
2:39 pm 14:39 Cloudy 55 12.8 51 10.6 87 87 SSW 13 20 30.09 1019 10 16 N/A
2:52 pm 14:52 Cloudy 55 12.8 51 10.6 87 87 SSW 12 19 30.07 1018 10 16 N/A
3:52 pm 15:52 Cloudy 56 13.3 52 11.1 87 87 SSW 10 17 30.04 1017 10 16 N/A
4:52 pm 16:52 Cloudy with Drizzle 56 13.3 54 12.2 93 93 SSW 9 15 30.03 1017 6 10 N/A
5:03 pm 17:03 Cloudy with Light Rain 55 12.8 54 12.2 96 96 SSW 8 13 30.03 1017 4 6 N/A
5:17 pm 17:17 Cloudy with Rain 55 12.8 55 12.8 100 100 SSW 9 15 30.03 1017 3 4 0.01 0.25
5:39 pm 17:39 Cloudy with Heavy Rain 55 12.8 55 12.8 100 100 SW 7 11 30.06 1018 2 3 0.09 2.29
5:52 pm 17:52 Cloudy with Heavy Rain 54 12.2 54 12.2 100 100 WSW 6 9 30.04 1017 2 2 0.17 4.32
6:03 pm 18:03 Cloudy with Rain 54 12.2 54 12.2 100 100 SW 7 11 30.06 1018 3 4 0.04 1.02
6:42 pm 18:42 Cloudy with Heavy Rain 55 12.8 55 12.8 100 100 SW 7 11 30.06 1018 2 3 0.13 3.30
6:52 pm 18:52 Cloudy with Rain 55 12.8 55 12.8 100 100 SW 6 9 30.03 1017 3 4 0.17 4.32
7:52 pm 19:52 Cloudy with Rain 54 12.2 54 12.2 100 100 SSW 6 9 30.03 1017 3 4 0.09 2.29
8:12 pm 20:12 Cloudy with Light Rain 54 12.2 54 12.2 100 100 SSW 6 9 30.03 1017 3 5 0.02 0.51
8:52 pm 20:52 Cloudy with Light Rain 54 12.2 54 12.2 100 100 SW 6 9 30.03 1017 3 5 0.04 1.02
9:03 pm 21:03 Cloudy with Light Rain 54 12.2 54 12.2 100 100 SSW 3 6 30.03 1017 3 5 N/A
9:52 pm 21:52 Cloudy with Light Rain 54 12.2 54 12.2 100 100 SW 5 7 30.03 1017 4 6 N/A
10:13 pm 22:13 Cloudy with Light Rain 54 12.2 54 12.2 100 100 SW 5 7 30.03 1017 3 5 0.01 0.25
10:52 pm 22:52 Cloudy with Light Rain 55 12.8 55 12.8 100 100 WSW 3 6 30.03 1017 3 4 0.02 0.51
11:52 pm 23:52 Cloudy with Light Rain 55 12.8 55 12.8 100 100 WSW 3 6 30.03 1017 3 4 0.02 0.51

Powered by AerisWeather